x

Pembrey Sands Samos (03605) Weather Station

2:00 - Wed 1st Apr 2015 All times are BST. 1 hours from GMT.

  • Wind
    24mph, 34mph gusts
  • Air Temp 49°f
  • Sea Pressure 1027mb
  • Pembrey Sands Samos
  • Pembrey Sands Samos

More Historic Weather Station data

Upgrade to MSW Pro to gain access to the past 30 days of data for over 8000 Wavebouys and Weather Stations around the globe.

Join Pro

Comparision Forecast

View Surf forecast
   
mer. 04/01 2:00 24 34 mph 1027mb 49f
1:00 25 33 mph 1027mb 49f
12:00 24 32 mph 1027mb 48f
11:00 25 34 mph 1027mb 48f
10:00 26 36 mph 1027mb 47f
9:00 22 30 mph 1027mb 45f
8:00 22 31 mph 1027mb 43f
7:00 22 29 mph 1026mb 43f
6:00 22 30 mph 1026mb 42f
5:00 25 33 mph 1026mb 43f
4:00 25 32 mph 1026mb 43f
3:00 23 31 mph 1026mb 42f
2:00 23 29 mph 1025mb 42f
1:00 25 38 mph 1024mb 43f
12:00 29 37 mph 1024mb 43f
mar. 03/31 11:00 30 37 mph 1023mb 44f
10:00 26 33 mph 1022mb 44f
9:00 22 34 mph 1021mb 46f
8:00 22 44 mph 1020mb 46f
7:00 33 47 mph 1020mb 48f
6:00 32 46 mph 1018mb 50f
5:00 34 47 mph 1017mb 50f
4:00 33 54 mph 1017mb 50f
3:00 40 55 mph 1016mb 51f
2:00 36 54 mph 1016mb 51f
1:00 34 54 mph 1015mb 51f
12:00 36 48 mph 1014mb 50f
11:00 37 52 mph 1013mb 49f
10:00 37 51 mph 1012mb 48f
9:00 32 47 mph 1011mb 48f
8:00 34 53 mph 1009mb 48f
7:00 36 48 mph 1006mb 48f
6:00 33 54 mph 1005mb 48f
5:00 37 53 mph 1004mb 49f
4:00 40 52 mph 1003mb 50f
3:00 30 60 mph 1002mb 50f
1:00 43 61 mph 1001mb 51f
12:00 48
mph
1001mb 51f
lun. 03/30 11:00 41 52 mph 1001mb 50f
10:00 40 48 mph 1002mb 50f
9:00 36 46 mph 1003mb 50f
8:00 32 43 mph 1003mb 50f
7:00 28 36 mph 1004mb 49f
6:00 30 39 mph 1005mb 49f
5:00 26 33 mph 1007mb 48f
4:00 26 33 mph 1008mb 47f
3:00 28 33 mph 1010mb 47f
2:00 19
mph
1011mb 47f
1:00 21
mph
1012mb 48f
12:00 16
mph
1013mb 49f
11:00 14
mph
1013mb 49f
10:00 13
mph
1012mb 47f
9:00 17
mph
1012mb 45f
8:00 19
mph
1011mb 44f
7:00 17
mph
1011mb 44f
6:00 21
mph
1009mb 44f
5:00 17
mph
1009mb 45f
4:00 14
mph
1008mb 45f
3:00 18
mph
1007mb 45f
2:00 18
mph
1006mb 45f
1:00 21 30 mph 1005mb 45f
12:00 23 31 mph 1005mb 47f
dim. 03/29 11:00 15
mph
1003mb 48f
10:00 18
mph
1003mb 48f
9:00 19 33 mph 1002mb 49f
8:00 22 34 mph 1002mb 49f
7:00 23 41 mph 1001mb 50f
5:00 29 47 mph 1000mb 52f
4:00 30 47 mph 1000mb 52f
3:00 36 49 mph 999mb 53f
2:00 29 53 mph 998mb 53f
1:00 40 56 mph 998mb 53f
12:00 44 61 mph 997mb 52f
11:00 46 62 mph 997mb 51f
10:00 44 54 mph 997mb 51f
9:00 43 53 mph 998mb 50f
8:00 39 49 mph 999mb 50f
7:00 33 40 mph 1000mb 49f
6:00 18
mph
1002mb 48f
5:00 19 30 mph 1003mb 48f
4:00 19
mph
1005mb 48f
3:00 21 29 mph 1006mb 49f
2:00 22 33 mph 1007mb 49f
1:00 28 39 mph 1007mb 49f
12:00 31 40 mph 1007mb 49f
sam. 03/28 11:00 29 34 mph 1007mb 49f
10:00 30 36 mph 1008mb 49f
9:00 26 39 mph 1008mb 49f
8:00 25 36 mph 1008mb 49f
7:00 26 36 mph 1008mb 50f
6:00 30 34 mph 1007mb 50f
5:00 28 37 mph 1007mb 50f
4:00 28 34 mph 1008mb 51f
3:00 26 32 mph 1008mb 51f